Hourly Data Report for September 09, 2017

All times are specified in Local Standard Time (LST). Add 1 hour to adjust for Daylight Saving Time where and when it is observed.

BAS CARAQUET
NEW BRUNSWICK

47°48'08.000" N
64°50'00.000" W
5.00 m
8100467
71598
WXS

Download Data

Hourly Data (September 2017)
Hourly Data Report for September 9, 2017
Temp Definition
°C
Dew Point Temp Definition
°C
Rel Hum Definition
%
Wind Dir Definition
10's deg

Wind Spd Definition
km/h
Visibility Definition
km
Stn Press Definition
kPa
Hmdx Definition


Wind Chill Definition


Weather Definition


TIME
00:00 13.1 12.1 94 13 5   101.85     LegendNANA
01:00 12.1 11.4 95 8 5   101.89     LegendNANA
02:00 12.0 10.9 93 7 7   101.91     LegendNANA
03:00 12.7 11.3 91 7 6   101.94     LegendNANA
04:00 13.4 11.1 86 6 12   101.96     LegendNANA
05:00 13.7 11.0 84 5 13   102.02     LegendNANA
06:00 13.9 11.0 83 5 11   102.08     LegendNANA
07:00 14.2 11.2 82 3 11   102.15     LegendNANA
08:00 14.2 11.1 82 4 13   102.18     LegendNANA
09:00 14.8 11.5 80 3 15   102.23     LegendNANA
10:00 15.2 11.7 80 3 15   102.26     LegendNANA
11:00 16.2 12.5 79 3 14   102.30     LegendNANA
12:00 16.2 12.2 77 3 16   102.31     LegendNANA
13:00 16.7 12.9 78 3 13   102.33     LegendNANA
14:00 17.6 13.5 77 3 14   102.31     LegendNANA
15:00 16.8 13.4 80 3 13   102.27     LegendNANA
16:00 16.4 13.2 81 4 14   102.29     LegendNANA
17:00 16.1 11.0 72 6 13   102.32     LegendNANA
18:00 14.5 9.8 74 7 8   102.35     LegendNANA
19:00 12.4 10.1 86 7 6   102.37     LegendNANA
20:00 13.2 12.1 94 5 9   102.44     LegendNANA
21:00 12.9 12.0 95 5 8   102.44     LegendNANA
22:00 12.3 11.8 97 2 6   102.48     LegendNANA
23:00 11.3 10.9 97 2 5   102.46     LegendNANA

Notes on Data Quality.

Legend

  • E = Estimated
  • M = Missing
  • NA = Not Available
  • ‡ = Partner data that is not subject to review by the National Climate Archives
Date modified: